TimeCST,TemperatureF,Dew PointF,Humidity,Sea Level PressureIn,VisibilityMPH,Wind Direction,Wind SpeedMPH,Gust SpeedMPH,PrecipitationIn,Events,Conditions,WindDirDegrees,DateUTC
12:04 AM,17.1,14.0,88,29.91,2.5,NNE,11.5,-,0.00,Snow,Light Snow,30,2012-12-13 06:04:00
12:11 AM,17.1,14.0,88,29.91,4.0,NE,9.2,-,0.00,Snow,Light Snow,40,2012-12-13 06:11:00
12:25 AM,17.1,12.9,84,29.92,2.5,NNE,9.2,-,0.00,Snow,Light Snow,30,2012-12-13 06:25:00
12:32 AM,17.1,12.9,84,29.92,5.0,NNE,9.2,-,0.00,Snow,Light Snow,30,2012-12-13 06:32:00
12:52 AM,17.1,12.9,84,30.00,7.0,NNE,5.8,-,0.00,Snow,Light Snow,30,2012-12-13 06:52:00
1:34 AM,17.1,12.9,84,29.94,2.5,NNE,5.8,-,0.00,Snow,Light Snow,20,2012-12-13 07:34:00
1:41 AM,18.0,14.0,84,29.94,2.5,NNE,6.9,-,0.01,Snow,Light Snow,30,2012-12-13 07:41:00
1:52 AM,17.1,12.9,84,30.03,1.8,NNE,9.2,-,0.01,Snow,Light Snow,20,2012-12-13 07:52:00
2:04 AM,17.1,12.9,84,29.95,2.0,NNE,9.2,-,0.00,Snow,Light Snow,30,2012-12-13 08:04:00
2:17 AM,16.0,12.0,84,29.95,3.0,NNE,11.5,-,0.00,Snow,Light Snow,30,2012-12-13 08:17:00
2:52 AM,15.1,10.0,80,30.06,5.0,NE,8.1,-,0.00,Snow,Light Snow,40,2012-12-13 08:52:00
3:52 AM,14.0,10.0,84,30.07,6.0,NE,9.2,-,0.00,Snow,Light Snow,50,2012-12-13 09:52:00
4:52 AM,12.9,9.0,84,30.07,10.0,ENE,6.9,-,0.00,,Overcast,70,2012-12-13 10:52:00
5:26 AM,10.9,7.0,84,29.99,10.0,East,3.5,-,N/A,,Overcast,100,2012-12-13 11:26:00
5:52 AM,12.0,7.0,80,30.11,10.0,Calm,Calm,-,N/A,,Overcast,0,2012-12-13 11:52:00
6:44 AM,14.0,8.1,77,30.03,10.0,Calm,Calm,-,N/A,,Overcast,0,2012-12-13 12:44:00
6:52 AM,14.0,9.0,80,30.14,10.0,Calm,Calm,-,N/A,,Overcast,0,2012-12-13 12:52:00
7:52 AM,12.9,8.1,81,30.14,8.0,ENE,5.8,-,N/A,,Overcast,70,2012-12-13 13:52:00
8:27 AM,12.9,9.0,84,30.05,2.0,East,5.8,-,0.00,Snow,Light Snow,100,2012-12-13 14:27:00
8:37 AM,12.9,9.0,84,30.04,1.5,ESE,6.9,-,0.00,Snow,Light Snow,110,2012-12-13 14:37:00
8:52 AM,12.9,9.0,84,30.14,2.0,ESE,8.1,-,0.00,Snow,Light Snow,110,2012-12-13 14:52:00
9:01 AM,12.9,9.0,84,30.04,5.0,ESE,8.1,-,0.00,,Overcast,110,2012-12-13 15:01:00
9:33 AM,14.0,10.4,86,30.05,9.0,ESE,8.1,-,N/A,,Overcast,120,2012-12-13 15:33:00
9:52 AM,14.0,10.0,84,30.14,10.0,SE,6.9,-,0.00,,Overcast,130,2012-12-13 15:52:00
10:24 AM,15.1,10.9,84,30.04,10.0,SSE,9.2,-,N/A,,Overcast,160,2012-12-13 16:24:00
10:41 AM,16.0,12.0,84,30.05,10.0,SE,6.9,-,N/A,,Overcast,140,2012-12-13 16:41:00
10:52 AM,16.0,12.0,84,30.14,10.0,SSE,5.8,-,N/A,,Overcast,150,2012-12-13 16:52:00
11:52 AM,18.0,14.0,84,30.13,10.0,SSE,8.1,-,N/A,,Overcast,150,2012-12-13 17:52:00
12:32 PM,19.0,15.1,85,30.02,10.0,SSE,5.8,-,N/A,,Overcast,150,2012-12-13 18:32:00
12:52 PM,19.9,16.0,85,30.11,10.0,SSE,6.9,-,N/A,,Overcast,150,2012-12-13 18:52:00
1:41 PM,21.0,17.1,85,30.00,10.0,SSE,5.8,-,N/A,,Scattered Clouds,150,2012-12-13 19:41:00
1:52 PM,19.9,17.1,89,30.10,10.0,SSE,4.6,-,N/A,,Partly Cloudy,150,2012-12-13 19:52:00
2:05 PM,21.0,17.1,85,30.00,10.0,SSE,4.6,-,N/A,,Mostly Cloudy,160,2012-12-13 20:05:00
2:29 PM,24.1,18.0,77,30.00,10.0,SSW,5.8,-,N/A,,Overcast,210,2012-12-13 20:29:00
2:52 PM,23.0,18.0,81,30.09,9.0,SSW,5.8,-,N/A,,Overcast,200,2012-12-13 20:52:00
3:52 PM,23.0,19.0,85,30.07,8.0,East,3.5,-,N/A,,Overcast,100,2012-12-13 21:52:00
4:29 PM,24.1,19.9,84,29.97,8.0,ESE,5.8,-,N/A,,Overcast,120,2012-12-13 22:29:00
4:52 PM,24.8,21.2,86,29.97,8.0,SSE,8.1,-,N/A,,Overcast,160,2012-12-13 22:52:00
6:52 PM,26.1,24.1,92,30.07,8.0,South,10.4,-,N/A,,Overcast,180,2012-12-14 00:52:00
7:41 PM,26.1,24.1,92,29.97,7.0,South,8.1,-,N/A,,Overcast,190,2012-12-14 01:41:00
7:52 PM,26.1,24.1,92,30.06,6.0,South,8.1,-,N/A,,Overcast,180,2012-12-14 01:52:00
8:52 PM,25.0,24.1,96,30.05,3.0,South,8.1,-,N/A,,Overcast,180,2012-12-14 02:52:00
9:52 PM,25.0,23.0,92,30.03,6.0,South,9.2,-,N/A,,Overcast,190,2012-12-14 03:52:00
10:52 PM,24.1,23.0,96,30.03,4.0,South,9.2,-,N/A,,Overcast,170,2012-12-14 04:52:00
11:52 PM,24.8,23.0,93,29.93,4.0,South,5.8,-,N/A,,Overcast,190,2012-12-14 05:52:00